Tracking 30308 objects as of 19-Apr-2025
HD Live streaming from Space Station
objects crossing your sky now

STARLINK-2381

Track STARLINK-2381 now!
10-day predictions
STARLINK-2381 is classified as:


NORAD ID: 47800
Int'l Code: 2021-018P
Perigee: 553.3 km
Apogee: 555.1 km
Inclination: 53.1 °
Period: 95.6 minutes
Semi major axis: 6925 km
RCS: Unknown
Launch date: March 11, 2021
Source: United States (US)
Launch site: AIR FORCE EASTERN TEST RANGE (AFETR)
Your satellite tracking list
Your tracking list is empty




NASA's NSSDC Master Catalog

Two Line Element Set (TLE):
1 47800U 21018P   25108.78706402  .00014885  00000-0  10147-2 0  9992
2 47800  53.0532 250.1607 0001288  96.6048 263.5088 15.06451153227578
Source of the keplerian elements: AFSPC